• In Kazakhstan
  • List of Countries
  • For 7 days
  • Water Temperature
  • Satellite Maps
  • Weather Map
  • News
  • Weather Widgets
  • user-avatar
    Login

    Hourly Weather Bakersfield

    Today, 23 September, Saturday

    Time Temperature Precipitation Wind Pressure Humidity
    00:00 +15°C° 0 mm 1 mps 746 mmHg 51%
    01:00 +14°C° 0 mm 1 mps 747 mmHg 52%
    02:00 +14°C° 0 mm 1 mps 747 mmHg 54%
    03:00 +14°C° 0 mm 1 mps 747 mmHg 55%
    04:00 +13°C° 0 mm 1 mps 747 mmHg 57%
    05:00 +14°C° 0 mm 1 mps 747 mmHg 54%
    06:00 +15°C° 0 mm 1 mps 747 mmHg 51%
    07:00 +16°C° 0 mm 1 mps 748 mmHg 48%
    08:00 +19°C° 0 mm 1 mps 748 mmHg 44%
    09:00 +19°C° 0 mm 2 mps 748 mmHg 40%
    10:00 +21°C° 0 mm 2 mps 748 mmHg 35%
    11:00 +23°C° 0 mm 2 mps 748 mmHg 33%
    12:00 +24°C° 0 mm 2 mps 747 mmHg 30%
    13:00 +25°C° 0 mm 3 mps 747 mmHg 28%
    14:00 +25°C° 0 mm 3 mps 747 mmHg 27%
    15:00 +26°C° 0 mm 3 mps 747 mmHg 26%
    16:00 +26°C° 0 mm 3 mps 746 mmHg 26%
    17:00 +24°C° 0 mm 2 mps 747 mmHg 30%
    18:00 +21°C° 0 mm 2 mps 747 mmHg 34%
    19:00 +20°C° 0 mm 1 mps 747 mmHg 38%
    20:00 +19°C° 0 mm 1 mps 747 mmHg 38%
    21:00 +19°C° 0 mm 1 mps 748 mmHg 38%
    22:00 +18°C° 0 mm 1 mps 748 mmHg 38%
    23:00 +18°C° 0 mm 1 mps 748 mmHg 39%

    Tomorrow, 24 September, Sunday

    Time Temperature Precipitation Wind Pressure Humidity
    00:00 +16°C° 0 mm 1 mps 748 mmHg 39%
    01:00 +16°C° 0 mm 1 mps 748 mmHg 40%
    02:00 +16°C° 0 mm 1 mps 748 mmHg 40%
    03:00 +15°C° 0 mm 1 mps 748 mmHg 41%
    04:00 +15°C° 0 mm 1 mps 748 mmHg 42%
    05:00 +16°C° 0 mm 1 mps 748 mmHg 39%
    06:00 +19°C° 0 mm 1 mps 748 mmHg 37%
    07:00 +20°C° 0 mm 1 mps 749 mmHg 34%
    08:00 +22°C° 0 mm 1 mps 749 mmHg 30%
    09:00 +24°C° 0 mm 1 mps 749 mmHg 25%
    10:00 +26°C° 0 mm 2 mps 749 mmHg 21%
    11:00 +27°C° 0 mm 2 mps 749 mmHg 20%
    12:00 +28°C° 0 mm 2 mps 748 mmHg 18%
    13:00 +29°C° 0 mm 2 mps 748 mmHg 17%
    14:00 +29°C° 0 mm 2 mps 748 mmHg 17%
    15:00 +29°C° 0 mm 3 mps 747 mmHg 18%
    16:00 +29°C° 0 mm 3 mps 747 mmHg 18%
    17:00 +26°C° 0 mm 2 mps 747 mmHg 22%
    18:00 +24°C° 0 mm 1 mps 747 mmHg 27%
    19:00 +21°C° 0 mm 1 mps 748 mmHg 31%
    20:00 +21°C° 0 mm 1 mps 748 mmHg 31%
    21:00 +21°C° 0 mm 1 mps 748 mmHg 32%
    22:00 +20°C° 0 mm 1 mps 749 mmHg 32%
    23:00 +20°C° 0 mm 1 mps 749 mmHg 33%

    Day after tomorrow, 25 September, Monday

    Time Temperature Precipitation Wind Pressure Humidity
    00:00 +19°C° 0 mm 1 mps 748 mmHg 34%
    01:00 +19°C° 0 mm 1 mps 748 mmHg 35%
    02:00 +18°C° 0 mm 1 mps 748 mmHg 35%
    03:00 +18°C° 0 mm 1 mps 748 mmHg 35%
    04:00 +18°C° 0 mm 1 mps 748 mmHg 35%
    05:00 +19°C° 0 mm 1 mps 748 mmHg 33%
    06:00 +20°C° 0 mm 1 mps 749 mmHg 32%
    07:00 +21°C° 0 mm 1 mps 749 mmHg 31%
    08:00 +23°C° 0 mm 1 mps 749 mmHg 27%
    09:00 +26°C° 0 mm 1 mps 749 mmHg 23%
    10:00 +28°C° 0 mm 2 mps 749 mmHg 19%
    11:00 +29°C° 0 mm 2 mps 748 mmHg 18%
    12:00 +30°C° 0 mm 2 mps 748 mmHg 16%
    13:00 +31°C° 0 mm 2 mps 747 mmHg 15%
    14:00 +31°C° 0 mm 2 mps 747 mmHg 15%
    15:00 +31°C° 0 mm 2 mps 747 mmHg 15%
    16:00 +31°C° 0 mm 2 mps 746 mmHg 15%
    17:00 +29°C° 0 mm 2 mps 747 mmHg 20%
    18:00 +26°C° 0 mm 1 mps 747 mmHg 24%
    19:00 +24°C° 0 mm 1 mps 747 mmHg 28%
    20:00 +23°C° 0 mm 1 mps 747 mmHg 28%
    21:00 +23°C° 0 mm 1 mps 748 mmHg 28%
    22:00 +22°C° 0 mm 1 mps 748 mmHg 29%
    23:00 +22°C° 0 mm 1 mps 748 mmHg 29%

    26 September, Tuesday

    Time Temperature Precipitation Wind Pressure Humidity
    00:00 +21°C° 0 mm 1 mps 747 mmHg 29%
    01:00 +21°C° 0 mm 1 mps 747 mmHg 30%
    02:00 +21°C° 0 mm 1 mps 747 mmHg 30%
    03:00 +20°C° 0 mm 1 mps 747 mmHg 31%
    04:00 +20°C° 0 mm 1 mps 747 mmHg 32%
    05:00 +21°C° 0 mm 1 mps 747 mmHg 31%
    06:00 +22°C° 0 mm 1 mps 748 mmHg 30%
    07:00 +23°C° 0 mm 1 mps 748 mmHg 29%
    08:00 +26°C° 0 mm 1 mps 748 mmHg 25%
    09:00 +28°C° 0 mm 1 mps 748 mmHg 21%
    10:00 +30°C° 0 mm 2 mps 748 mmHg 17%
    11:00 +31°C° 0 mm 2 mps 747 mmHg 16%
    12:00 +32°C° 0 mm 2 mps 747 mmHg 14%
    13:00 +34°C° 0 mm 2 mps 746 mmHg 13%
    14:00 +34°C° 0 mm 2 mps 746 mmHg 13%
    15:00 +34°C° 0 mm 2 mps 746 mmHg 13%
    16:00 +34°C° 0 mm 2 mps 746 mmHg 13%
    17:00 +31°C° 0 mm 2 mps 746 mmHg 16%
    18:00 +28°C° 0 mm 2 mps 746 mmHg 19%
    19:00 +26°C° 0 mm 1 mps 747 mmHg 22%
    20:00 +25°C° 0 mm 1 mps 747 mmHg 23%
    21:00 +25°C° 0 mm 1 mps 747 mmHg 23%
    22:00 +24°C° 0 mm 1 mps 747 mmHg 24%
    23:00 +24°C° 0 mm 1 mps 747 mmHg 24%

    27 September, Wednesday

    Time Temperature Precipitation Wind Pressure Humidity
    00:00 +23°C° 0 mm 1 mps 747 mmHg 25%
    01:00 +23°C° 0 mm 1 mps 747 mmHg 26%
    02:00 +22°C° 0 mm 1 mps 747 mmHg 26%
    03:00 +22°C° 0 mm 1 mps 747 mmHg 27%
    04:00 +22°C° 0 mm 1 mps 747 mmHg 27%
    05:00 +23°C° 0 mm 2 mps 748 mmHg 27%
    06:00 +24°C° 0 mm 2 mps 748 mmHg 26%
    07:00 +25°C° 0 mm 2 mps 748 mmHg 26%
    08:00 +27°C° 0 mm 2 mps 748 mmHg 22%
    09:00 +30°C° 0 mm 2 mps 748 mmHg 18%
    10:00 +32°C° 0 mm 2 mps 748 mmHg 14%
    11:00 +34°C° 0 mm 3 mps 748 mmHg 13%
    12:00 +35°C° 0 mm 3 mps 747 mmHg 12%
    13:00 +36°C° 0 mm 3 mps 747 mmHg 11%
    14:00 +36°C° 0 mm 3 mps 747 mmHg 11%
    15:00 +36°C° 0 mm 3 mps 747 mmHg 12%
    16:00 +36°C° 0 mm 3 mps 747 mmHg 12%
    17:00 +32°C° 0 mm 2 mps 747 mmHg 15%
    18:00 +29°C° 0 mm 2 mps 747 mmHg 19%
    19:00 +27°C° 0 mm 1 mps 748 mmHg 22%
    20:00 +26°C° 0 mm 1 mps 748 mmHg 22%
    21:00 +26°C° 0 mm 1 mps 748 mmHg 22%
    22:00 +25°C° 0 mm 1 mps 748 mmHg 22%
    23:00 +24°C° 0 mm 1 mps 748 mmHg 23%

    28 September, Thursday

    Time Temperature Precipitation Wind Pressure Humidity
    00:00 +24°C° 0 mm 1 mps 748 mmHg 24%
    01:00 +23°C° 0 mm 1 mps 748 mmHg 25%
    02:00 +23°C° 0 mm 1 mps 748 mmHg 25%
    03:00 +22°C° 0 mm 1 mps 748 mmHg 26%
    04:00 +22°C° 0 mm 1 mps 748 mmHg 26%
    05:00 +23°C° 0 mm 1 mps 748 mmHg 26%
    06:00 +24°C° 0 mm 1 mps 748 mmHg 26%
    07:00 +25°C° 0 mm 1 mps 749 mmHg 27%
    08:00 +27°C° 0 mm 1 mps 749 mmHg 23%
    09:00 +30°C° 0 mm 1 mps 749 mmHg 19%
    10:00 +32°C° 0 mm 1 mps 749 mmHg 15%
    11:00 +33°C° 0 mm 1 mps 748 mmHg 14%
    12:00 +35°C° 0 mm 2 mps 748 mmHg 14%
    13:00 +36°C° 0 mm 2 mps 748 mmHg 13%
    14:00 +36°C° 0 mm 2 mps 748 mmHg 13%
    15:00 +36°C° 0 mm 2 mps 747 mmHg 13%
    16:00 +36°C° 0 mm 2 mps 747 mmHg 14%
    17:00 +32°C° 0 mm 2 mps 747 mmHg 17%
    18:00 +30°C° 0 mm 2 mps 748 mmHg 20%
    19:00 +27°C° 0 mm 1 mps 748 mmHg 23%
    20:00 +27°C° 0 mm 1 mps 748 mmHg 23%
    21:00 +26°C° 0 mm 1 mps 749 mmHg 23%
    22:00 +26°C° 0 mm 1 mps 749 mmHg 23%
    23:00 +25°C° 0 mm 1 mps 749 mmHg 24%
    Show more